Temp
70 70 68 69 59 53 46 50 52 54 54 57 60 59 58 55 57 51 63 68 68 69 71 72 74 75 75 75 75 75 75 76 77 77 76 76 75 75 75 75 74 75 75 74 74 76 74 73 73
69 73 68 59 52 46 48 51 54 55 58 59 60 59 57 54 59 59 62 68 69 70 70 71 74 75 74 74 74 75 75 76 76 76 76 75 75 75 75 76 75 76 75 75 73 74 73 73 74
73 69 63 53 46 46 49 53 55 57 59 58 57 59 56 57 59 61 65 68 69 69 69 70 72 74 74 74 74 75 75 75 76 76 76 75 75 75 75 75 75 75 75 75 74 73 72 74 73
68 66 60 52 46 49 51 53 56 58 59 61 59 55 58 62 61 64 67 69 69 68 68 70 72 74 74 74 74 75 75 75 76 77 76 76 75 74 74 75 74 75 75 74 73 72 71 71 71
64 59 51 48 47 53 53 56 58 55 56 57 58 55 55 62 64 65 66 68 70 68 67 68 71 73 73 74 74 74 75 75 75 76 76 75 75 74 74 74 75 74 73 73 72 71 70 70 70
60 57 47 44 47 54 55 57 58 56 57 57 57 55 56 62 63 64 66 66 68 69 67 68 68 70 71 72 73 73 74 74 74 75 76 75 74 74 74 74 74 74 72 72 71 70 70 70 70
56 52 46 44 47 51 55 57 55 56 55 57 61 54 56 59 63 64 65 65 66 68 67 67 67 67 67 69 70 71 72 74 73 74 74 73 72 73 73 72 73 73 72 71 70 69 69 69 69
56 53 45 44 47 49 56 57 58 58 56 60 61 56 54 59 63 64 64 64 65 67 66 66 66 66 66 66 66 67 69 70 71 70 69 68 72 70 70 69 71 72 72 71 70 69 69 69 69
57 49 45 48 50 51 56 55 59 60 59 58 59 57 58 61 62 61 61 64 65 67 68 66 65 65 65 65 65 64 65 66 67 66 65 65 63 66 64 65 68 71 71 70 70 69 68 67 66
54 47 50 54 53 52 56 55 56 56 55 55 56 57 59 61 60 60 59 63 64 66 67 68 66 65 65 67 64 63 64 63 63 62 62 62 61 61 63 61 64 68 68 69 69 68 67 63 57
51 49 53 56 57 57 56 55 56 55 53 59 57 57 57 58 59 59 60 62 63 66 67 67 67 65 64 64 63 62 62 61 61 61 60 60 60 58 58 58 59 61 62 62 63 61 59 58 57
48 54 55 58 58 57 55 57 58 55 59 62 60 59 58 59 59 60 60 61 60 61 63 64 66 66 65 65 63 62 62 61 60 60 60 58 57 56 56 56 57 57 58 58 58 57 57 57 57
49 52 56 58 57 56 57 56 57 56 63 60 61 60 59 59 60 61 62 61 61 61 62 63 64 65 66 65 66 64 62 62 62 60 60 58 57 56 56 56 56 56 57 57 56 56 56 56 56
52 52 53 55 56 56 55 52 55 55 58 60 57 58 58 58 60 58 59 60 61 63 62 63 64 65 64 65 67 66 64 63 61 61 61 59 59 57 56 56 56 56 57 57 57 56 56 56 56
52 49 51 51 54 54 54 51 50 57 56 57 58 57 57 58 59 60 62 62 63 64 65 62 63 64 64 64 64 66 66 63 62 62 61 61 60 58 58 57 57 57 57 57 56 56 56 55 56
46 45 40 49 52 54 53 45 53 54 51 55 56 55 56 58 59 60 62 62 64 64 62 64 67 64 64 64 64 65 64 63 63 63 62 62 62 60 59 58 58 58 57 58 57 56 55 55 55
45 39 38 45 49 49 50 42 53 54 53 52 52 53 55 56 59 59 62 62 64 63 64 63 64 64 64 64 65 64 64 63 63 63 63 62 63 62 61 60 60 58 58 57 58 56 56 55 56
43 41 42 41 44 45 45 44 49 53 51 50 50 50 51 55 60 64 62 62 63 63 64 65 64 65 64 65 64 63 63 64 65 64 63 63 63 62 61 62 60 58 58 57 56 57 55 57 57
45 40 38 38 47 43 43 43 47 51 48 48 52 53 55 58 63 66 66 64 61 61 61 63 63 64 64 61 61 62 61 63 62 65 65 65 64 63 62 62 61 60 59 59 58 57 56 55 54
46 41 42 43 46 44 43 45 51 49 50 54 55 57 58 59 61 63 63 60 59 62 60 62 63 65 64 65 65 65 63 64 64 64 65 65 65 64 64 63 62 61 60 59 59 58 56 55 54
43 41 39 42 42 44 40 43 48 55 52 53 54 55 58 58 59 62 62 60 59 58 59 61 62 64 64 65 64 61 60 58 59 63 64 64 64 63 63 64 63 62 61 61 60 59 58 57 53
38 43 43 41 38 34 41 33 45 44 48 49 52 51 54 58 57 59 60 58 58 57 58 59 61 62 64 64 63 61 62 60 63 64 63 64 63 63 62 63 63 62 61 61 61 60 59 59 57
40 44 41 40 36 35 38 35 36 41 43 51 54 51 54 51 51 52 53 55 53 53 52 54 57 59 61 61 63 61 60 63 61 60 61 61 62 63 62 62 62 62 62 61 62 61 59 60 59
45 43 42 40 40 32 37 37 39 43 46 49 47 48 49 48 48 49 50 52 51 51 53 54 55 55 57 59 59 60 59 60 59 58 58 60 60 61 62 62 61 61 61 61 61 61 61 59 60
43 40 31 30 29 29 33 35 40 46 48 47 48 48 45 47 47 47 47 48 49 50 51 54 53 51 53 54 55 57 60 61 60 60 61 61 62 60 61 61 61 60 61 61 61 60 60 61 59
39 41 33 24 23 27 32 31 40 46 45 49 49 49 48 47 46 45 45 47 48 48 49 50 50 50 51 52 52 53 53 54 56 59 61 62 63 63 64 62 61 61 61 61 61 61 61 61 60
39 36 44 32 26 24 29 33 43 44 46 43 43 47 45 44 43 43 44 45 46 47 47 48 48 48 49 50 50 51 52 53 52 54 55 56 58 60 61 61 62 61 61 60 60 60 60 61 60
42 44 34 34 26 20 27 26 33 39 42 42 43 44 42 41 41 42 43 43 44 45 46 46 46 45 47 48 48 49 49 51 53 53 52 53 54 56 56 59 60 61 61 61 61 60 61 60 60
39 37 37 35 34 27 27 29 36 36 39 40 43 42 39 38 39 40 41 42 42 43 43 43 43 43 43 45 46 47 47 47 49 49 50 50 51 52 53 55 56 58 60 61 61 61 61 60 60
42 42 40 31 30 32 30 31 39 37 40 43 40 39 39 39 38 39 40 40 39 40 41 41 40 40 41 43 43 44 44 45 44 44 46 47 47 48 49 51 52 54 56 58 60 60 61 60 59
MSLP
1012.89 1012.25 1012.40 1012.79 1014.57 1015.81 1016.66 1016.69 1016.45 1016.38 1016.49 1016.60 1016.66 1016.97 1017.34 1017.69 1017.96 1018.67 1017.94 1017.94 1017.78 1018.16 1018.38 1018.42 1018.50 1018.79 1019.01 1019.19 1019.33 1019.49 1019.56 1019.57 1019.62 1019.79 1019.93 1020.12 1020.36 1020.52 1020.63 1020.68 1020.95 1021.09 1021.23 1021.39 1021.38 1021.30 1021.46 1021.49 1021.34
1012.99 1012.40 1012.78 1014.03 1015.70 1016.90 1017.18 1016.56 1016.43 1016.39 1016.47 1016.63 1016.79 1017.00 1017.31 1017.71 1017.83 1018.13 1018.19 1018.01 1017.95 1018.08 1018.34 1018.69 1018.80 1018.90 1019.13 1019.34 1019.50 1019.60 1019.71 1019.80 1019.81 1019.87 1020.09 1020.25 1020.46 1020.70 1020.80 1020.79 1021.04 1021.16 1021.32 1021.52 1021.72 1021.68 1021.74 1021.66 1021.37
1012.93 1013.01 1014.24 1015.53 1017.04 1017.30 1016.91 1016.42 1016.35 1016.47 1016.43 1016.59 1016.99 1017.19 1017.42 1017.63 1017.80 1017.89 1017.76 1017.92 1018.15 1018.36 1018.47 1018.72 1018.95 1019.16 1019.23 1019.45 1019.67 1019.77 1019.85 1019.98 1020.05 1020.02 1020.13 1020.36 1020.54 1020.81 1020.96 1020.98 1021.05 1021.32 1021.52 1021.65 1021.86 1022.02 1022.04 1021.83 1021.64
1013.61 1013.99 1015.69 1016.49 1017.36 1017.00 1016.72 1016.37 1016.31 1016.46 1016.45 1016.53 1016.87 1017.38 1017.50 1017.50 1017.54 1017.57 1017.69 1017.92 1018.40 1018.63 1018.84 1018.90 1019.03 1019.18 1019.44 1019.62 1019.72 1019.91 1020.06 1020.14 1020.18 1020.16 1020.28 1020.36 1020.63 1020.97 1021.14 1021.20 1021.35 1021.44 1021.58 1021.82 1022.09 1022.27 1022.27 1022.21 1022.12
1014.55 1015.70 1016.85 1017.57 1017.60 1017.03 1016.60 1016.30 1016.46 1016.64 1016.56 1016.58 1016.84 1017.38 1017.53 1017.52 1017.50 1017.63 1017.83 1017.98 1018.38 1018.94 1019.14 1019.16 1019.26 1019.33 1019.45 1019.64 1019.83 1019.93 1020.14 1020.29 1020.38 1020.32 1020.26 1020.48 1020.74 1021.10 1021.33 1021.45 1021.50 1021.67 1021.88 1022.08 1022.28 1022.39 1022.41 1022.40 1022.31
1015.96 1016.90 1017.83 1018.14 1017.78 1017.11 1016.64 1016.39 1016.49 1016.71 1016.67 1016.66 1016.87 1017.43 1017.65 1017.55 1017.68 1017.91 1018.05 1018.21 1018.33 1018.65 1019.10 1019.46 1019.49 1019.55 1019.55 1019.66 1019.83 1019.97 1019.99 1020.25 1020.44 1020.66 1020.52 1020.59 1020.83 1021.09 1021.34 1021.43 1021.57 1021.78 1022.13 1022.34 1022.47 1022.50 1022.49 1022.50 1022.50
1016.80 1017.77 1018.38 1018.18 1017.89 1017.20 1016.86 1016.55 1016.41 1016.55 1016.66 1016.60 1016.71 1017.35 1017.64 1017.61 1017.65 1017.94 1018.20 1018.31 1018.51 1018.68 1018.91 1019.17 1019.60 1019.80 1019.78 1019.74 1019.81 1020.06 1020.11 1020.06 1020.23 1020.50 1020.72 1020.83 1021.01 1021.23 1021.40 1021.55 1021.63 1021.82 1022.14 1022.36 1022.53 1022.68 1022.70 1022.68 1022.70
1017.15 1018.04 1018.59 1018.11 1017.84 1017.20 1016.77 1016.55 1016.32 1016.43 1016.61 1016.69 1016.76 1017.14 1017.43 1017.44 1017.70 1018.05 1018.38 1018.62 1018.81 1018.81 1018.93 1019.07 1019.23 1019.64 1019.95 1019.98 1019.98 1020.08 1020.25 1020.39 1020.44 1020.57 1020.77 1020.92 1021.02 1021.26 1021.46 1021.63 1021.83 1021.90 1022.09 1022.32 1022.53 1022.70 1022.82 1022.84 1022.84
1017.30 1018.21 1018.64 1017.87 1017.55 1016.93 1016.66 1016.52 1016.38 1016.36 1016.58 1016.80 1016.93 1017.09 1017.35 1017.54 1017.96 1018.44 1018.74 1018.82 1018.89 1018.97 1019.04 1019.17 1019.31 1019.33 1019.65 1020.03 1020.14 1020.19 1020.32 1020.39 1020.55 1020.67 1020.77 1020.97 1021.36 1021.47 1021.57 1021.62 1021.69 1021.84 1022.04 1022.36 1022.58 1022.69 1022.77 1022.84 1022.89
1017.79 1018.56 1018.21 1017.43 1017.08 1016.87 1016.66 1016.56 1016.52 1016.53 1016.63 1016.85 1017.06 1017.24 1017.45 1017.71 1018.16 1018.47 1018.65 1018.68 1018.64 1018.60 1018.70 1018.79 1019.14 1019.38 1019.50 1019.67 1020.07 1020.43 1020.40 1020.52 1020.64 1020.79 1020.94 1021.03 1021.15 1021.40 1021.60 1021.70 1021.62 1021.66 1021.95 1022.16 1022.46 1022.61 1022.70 1022.86 1023.11
1018.10 1018.22 1017.81 1017.25 1016.91 1016.82 1016.77 1016.69 1016.66 1016.63 1016.74 1016.69 1016.95 1017.28 1017.79 1018.03 1018.21 1018.41 1018.34 1018.20 1018.06 1018.35 1018.62 1018.65 1018.72 1019.05 1019.37 1019.60 1019.81 1020.14 1020.52 1020.54 1020.63 1020.79 1021.01 1021.25 1021.36 1021.48 1021.68 1021.90 1021.95 1021.91 1021.98 1022.22 1022.36 1022.59 1022.75 1022.87 1022.97
1018.38 1017.99 1017.71 1017.30 1017.01 1017.05 1016.98 1016.90 1016.85 1016.76 1016.44 1016.31 1016.70 1017.10 1017.72 1018.09 1018.07 1017.90 1017.90 1017.91 1017.97 1018.11 1018.27 1018.40 1018.43 1018.64 1018.99 1019.24 1019.52 1019.74 1020.05 1020.47 1020.56 1020.52 1020.75 1021.04 1021.38 1021.66 1021.74 1021.90 1022.01 1022.11 1022.13 1022.32 1022.43 1022.58 1022.66 1022.78 1022.83
1018.34 1018.18 1017.93 1017.60 1017.38 1017.35 1017.27 1017.28 1017.21 1016.77 1016.42 1016.60 1016.90 1017.18 1017.62 1017.87 1017.72 1017.65 1017.69 1017.90 1017.94 1017.75 1017.64 1017.81 1017.99 1018.22 1018.43 1018.73 1018.88 1019.16 1019.51 1019.73 1020.12 1020.45 1020.38 1020.68 1020.95 1021.17 1021.45 1021.61 1021.80 1021.97 1022.08 1022.20 1022.28 1022.34 1022.36 1022.49 1022.54
1018.46 1018.43 1018.30 1018.04 1017.79 1017.55 1017.57 1017.57 1017.60 1016.91 1016.69 1016.78 1017.07 1017.37 1017.66 1017.87 1017.61 1017.81 1017.63 1017.49 1017.47 1017.32 1017.17 1017.36 1017.55 1017.59 1017.99 1018.28 1018.43 1018.62 1018.86 1019.16 1019.64 1020.06 1020.36 1020.31 1020.42 1020.70 1021.04 1021.31 1021.52 1021.61 1021.70 1021.78 1021.98 1022.12 1022.22 1022.16 1022.19
1018.65 1018.81 1018.59 1018.38 1018.15 1017.95 1017.79 1017.83 1017.68 1017.08 1017.41 1017.58 1017.64 1017.47 1017.66 1017.70 1017.74 1017.34 1016.82 1016.77 1016.53 1016.40 1016.58 1016.82 1017.01 1017.17 1017.46 1017.74 1018.11 1018.27 1018.37 1018.66 1018.98 1019.29 1019.77 1020.24 1020.19 1020.24 1020.37 1020.70 1020.94 1021.08 1021.25 1021.48 1021.64 1021.78 1021.91 1022.02 1021.93
1019.21 1019.33 1019.32 1018.76 1018.50 1018.18 1018.37 1017.85 1017.64 1017.48 1017.66 1017.79 1017.91 1017.70 1017.47 1017.14 1017.02 1016.75 1016.42 1016.25 1016.04 1015.94 1015.97 1016.02 1016.27 1016.53 1016.87 1017.14 1017.42 1017.80 1018.01 1018.17 1018.31 1018.51 1018.73 1019.18 1019.77 1019.91 1020.08 1020.16 1020.20 1020.42 1020.77 1020.97 1021.24 1021.34 1021.57 1021.64 1021.65
1019.52 1019.61 1019.79 1019.58 1019.23 1018.98 1018.99 1018.38 1017.96 1017.69 1017.80 1018.03 1018.10 1017.98 1017.62 1017.05 1016.43 1015.88 1015.48 1015.40 1015.32 1015.32 1015.33 1015.38 1015.54 1015.72 1015.91 1016.26 1016.56 1017.02 1017.30 1017.61 1017.66 1017.81 1018.00 1018.19 1018.60 1019.26 1019.56 1019.49 1019.43 1019.83 1020.31 1020.58 1020.72 1020.93 1021.12 1021.17 1021.18
1019.37 1019.74 1020.06 1019.98 1019.89 1019.69 1019.47 1018.82 1018.70 1018.08 1018.07 1018.08 1017.77 1017.71 1017.62 1016.80 1015.64 1014.90 1014.45 1014.26 1014.24 1014.34 1014.34 1014.46 1014.86 1014.96 1015.27 1015.68 1016.08 1016.41 1016.66 1016.73 1016.90 1016.94 1017.15 1017.53 1017.81 1018.08 1018.88 1018.93 1018.96 1019.24 1019.61 1019.96 1020.18 1020.33 1020.47 1020.51 1020.53
1019.45 1019.79 1020.16 1020.44 1020.22 1020.29 1019.62 1018.69 1018.41 1018.04 1017.90 1017.81 1017.39 1016.94 1016.40 1015.56 1014.42 1013.80 1013.22 1013.13 1013.25 1013.59 1013.78 1013.59 1014.05 1014.05 1014.94 1015.37 1015.62 1015.74 1015.59 1016.05 1016.10 1016.09 1016.36 1016.63 1016.97 1017.29 1017.65 1017.98 1018.14 1018.41 1018.70 1018.89 1019.19 1019.57 1019.87 1019.97 1020.12
1019.50 1019.93 1020.33 1020.63 1020.37 1020.58 1019.60 1017.56 1017.67 1017.61 1017.11 1016.88 1016.61 1016.06 1015.29 1014.33 1013.68 1013.16 1013.02 1012.99 1012.90 1012.86 1013.06 1013.13 1013.10 1013.29 1013.62 1014.06 1014.29 1014.50 1014.71 1014.86 1015.19 1015.35 1015.46 1015.73 1016.06 1016.39 1016.76 1016.95 1017.31 1017.72 1017.98 1018.12 1018.31 1018.66 1019.06 1019.20 1019.36
1019.69 1019.97 1020.64 1020.81 1020.79 1020.47 1020.16 1016.97 1016.95 1016.01 1015.84 1015.78 1015.71 1015.35 1014.53 1013.85 1013.38 1012.82 1012.62 1012.41 1012.25 1012.38 1012.16 1012.28 1012.25 1012.54 1012.97 1013.36 1013.92 1014.34 1014.70 1014.76 1014.82 1014.64 1014.86 1014.94 1015.28 1015.60 1015.79 1016.08 1016.23 1016.66 1017.11 1017.20 1017.42 1017.63 1017.90 1018.12 1018.42
1019.69 1019.96 1020.59 1020.97 1021.39 1020.85 1020.12 1016.52 1016.25 1015.89 1015.58 1015.52 1015.05 1014.70 1014.08 1013.63 1013.44 1012.85 1012.33 1012.19 1012.15 1011.98 1011.96 1011.81 1011.97 1012.23 1012.27 1012.58 1013.06 1013.51 1013.72 1014.00 1013.84 1014.09 1014.26 1014.33 1014.64 1014.86 1014.97 1015.24 1015.55 1015.77 1016.00 1016.25 1016.30 1016.56 1016.68 1017.10 1017.25
1019.61 1019.80 1020.42 1020.89 1021.33 1021.36 1019.96 1019.96 1014.71 1014.99 1014.96 1014.76 1014.02 1014.38 1014.07 1014.10 1013.85 1013.07 1012.76 1012.55 1012.55 1012.37 1012.03 1011.70 1011.70 1012.07 1012.28 1012.44 1012.64 1012.94 1013.52 1013.66 1013.70 1013.91 1014.00 1014.13 1014.02 1014.06 1014.36 1014.52 1014.63 1015.15 1015.45 1015.36 1015.44 1015.58 1015.67 1015.78 1015.92
1019.46 1019.96 1020.53 1020.87 1021.27 1020.53 1018.91 1019.85 1013.21 1014.16 1013.95 1013.63 1013.69 1014.15 1014.67 1014.79 1014.52 1013.99 1013.59 1013.30 1013.24 1013.10 1012.47 1012.12 1012.20 1012.61 1012.52 1012.71 1012.98 1012.80 1012.97 1013.00 1013.19 1013.40 1013.64 1013.72 1013.92 1013.96 1013.97 1014.00 1014.04 1014.08 1014.41 1014.57 1014.57 1014.58 1014.71 1014.80 1014.73
1019.27 1019.84 1020.20 1020.44 1020.56 1019.24 1018.62 1019.02 1013.51 1012.91 1013.61 1014.04 1014.29 1014.67 1015.19 1015.25 1015.55 1015.29 1015.02 1014.81 1014.62 1014.41 1014.08 1013.77 1013.42 1013.68 1013.64 1013.56 1013.88 1013.58 1013.42 1013.57 1013.43 1013.38 1013.33 1013.51 1013.37 1013.48 1013.36 1013.40 1013.58 1013.47 1013.35 1013.43 1013.59 1013.68 1013.66 1013.66 1013.65
1018.83 1019.34 1019.40 1019.44 1019.84 1019.34 1019.06 1017.30 1013.15 1012.94 1013.22 1013.29 1013.85 1014.68 1015.21 1016.08 1016.57 1016.62 1016.64 1016.41 1016.16 1015.73 1015.54 1015.34 1015.23 1015.03 1014.74 1014.31 1014.25 1014.55 1014.56 1014.27 1014.16 1013.80 1013.35 1013.25 1013.13 1013.00 1012.89 1012.63 1012.73 1012.73 1012.65 1012.56 1012.61 1012.70 1012.57 1012.51 1012.44
1018.32 1018.40 1018.47 1019.22 1019.93 1019.99 1018.32 1016.41 1014.27 1013.48 1013.33 1013.67 1014.69 1015.14 1016.34 1017.30 1018.03 1018.14 1017.96 1017.80 1017.54 1017.19 1016.90 1016.74 1016.43 1016.30 1016.12 1015.86 1015.54 1015.36 1015.27 1015.25 1014.95 1014.72 1014.02 1013.90 1013.64 1013.22 1012.62 1012.35 1012.14 1011.96 1011.80 1011.78 1011.66 1011.63 1011.60 1011.54 1011.34
1017.62 1017.94 1018.63 1019.04 1019.10 1018.58 1017.88 1017.42 1015.97 1014.94 1014.83 1014.87 1015.33 1016.80 1018.01 1018.61 1019.01 1019.36 1019.28 1019.16 1018.96 1018.67 1018.11 1017.89 1017.72 1017.63 1017.41 1017.01 1016.87 1016.69 1016.36 1016.16 1015.79 1015.54 1014.72 1014.53 1014.31 1013.79 1013.04 1012.67 1012.11 1011.61 1011.25 1011.13 1010.96 1010.73 1010.65 1010.66 1010.42
1017.67 1017.55 1018.17 1018.82 1018.57 1018.34 1018.07 1017.21 1017.00 1016.74 1016.19 1016.04 1016.88 1017.68 1018.77 1019.36 1019.89 1020.28 1020.28 1020.30 1020.14 1019.71 1019.28 1019.20 1018.83 1018.57 1018.33 1018.04 1017.86 1017.56 1017.37 1017.04 1016.62 1016.30 1015.80 1015.55 1014.88 1014.23 1013.70 1013.24 1012.71 1011.72 1010.90 1010.41 1010.16 1010.00 1009.78 1009.54 1009.40
1016.56 1016.58 1017.42 1017.77 1018.04 1017.81 1017.56 1016.99 1016.94 1017.14 1016.56 1016.66 1018.12 1018.90 1019.70 1019.97 1020.38 1020.74 1020.71 1020.73 1020.65 1020.60 1020.32 1020.22 1020.06 1019.96 1019.81 1019.42 1018.94 1018.56 1018.20 1017.83 1017.41 1016.82 1016.64 1016.14 1015.42 1014.49 1014.47 1013.87 1013.02 1011.96 1011.40 1010.57 1009.86 1009.29 1008.85 1008.75 1008.49
Wind_Speed
11 8 2 5 6 6 1 2 1 1 1 1 2 2 3 2 3 4 4 5 7 7 5 7 11 10 10 10 9 8 8 9 10 11 11 12 12 11 12 12 11 10 11 11 10 12 7 7 8
7 5 5 3 7 4 4 3 3 1 3 5 3 2 3 0 1 1 3 4 6 8 7 5 11 11 10 10 10 9 8 8 9 12 11 12 14 12 11 12 11 10 10 10 8 8 9 7 7
5 4 5 5 4 4 3 3 3 2 4 0 3 3 2 1 1 5 2 8 7 5 6 7 10 10 11 10 9 8 7 6 5 13 12 12 13 13 12 9 10 12 9 8 8 8 7 5 10
5 6 5 7 2 1 1 1 3 4 1 1 3 2 2 1 1 5 8 9 8 5 5 8 11 12 11 10 10 9 10 9 8 9 11 11 14 13 11 9 10 10 9 8 7 6 5 5 6
5 4 5 4 3 4 1 2 5 2 1 0 2 1 2 2 3 6 9 9 12 6 4 6 9 10 10 11 10 9 11 9 10 8 10 9 14 13 10 9 9 8 8 7 7 5 4 3 4
5 3 5 1 3 5 2 2 4 1 1 0 2 4 3 3 4 6 6 7 8 11 6 4 7 8 9 10 9 7 10 10 8 8 6 12 14 13 10 9 8 8 8 6 6 5 4 3 3
6 4 3 2 2 3 2 2 1 3 2 2 4 1 3 2 3 6 6 5 6 7 6 6 5 5 7 8 8 7 6 11 9 10 7 5 10 11 11 8 6 7 8 6 5 4 3 2 1
5 5 2 2 1 1 2 1 1 2 2 2 2 2 3 3 7 6 5 5 5 5 6 6 6 6 5 5 7 6 6 7 6 7 5 1 8 8 6 8 8 10 9 7 5 4 3 1 1
2 5 2 3 4 1 2 2 3 0 4 1 1 2 1 2 7 5 3 4 5 5 9 6 5 6 6 5 5 6 6 7 7 6 8 6 1 2 4 4 5 10 11 8 6 5 4 2 2
5 4 8 2 2 1 0 1 2 1 2 2 3 1 2 7 5 7 7 11 12 13 12 10 8 6 6 5 5 5 4 4 4 4 5 4 5 4 4 4 6 7 8 8 7 6 5 3 1
2 5 3 2 1 0 2 2 1 4 2 6 3 1 2 4 6 8 8 9 12 11 9 11 11 7 7 5 4 3 2 3 3 5 5 4 2 3 2 1 2 2 3 1 2 2 2 3 3
1 3 3 1 2 1 2 2 6 4 5 3 3 1 4 8 10 12 12 11 7 7 10 9 12 10 8 5 5 5 4 3 3 5 6 4 3 3 4 3 4 3 2 4 4 2 4 5 5
2 1 1 4 4 3 2 5 6 5 9 5 6 4 7 8 10 7 7 6 6 9 9 10 10 10 10 11 8 6 6 6 5 5 6 5 4 5 4 4 3 4 3 4 4 4 4 5 5
1 1 3 3 4 4 4 2 4 3 4 5 2 5 6 8 10 4 7 10 10 11 10 9 11 11 9 10 13 9 7 7 5 5 6 8 6 5 5 4 4 4 4 4 4 5 4 5 4
2 4 5 3 3 5 3 7 7 6 4 7 10 8 7 8 6 13 13 12 13 13 10 11 11 11 11 12 10 10 9 7 7 7 7 8 8 7 7 6 5 6 5 5 4 5 4 4 4
1 2 3 3 3 3 5 9 4 2 1 7 9 9 8 9 8 10 13 13 11 10 11 11 10 11 12 12 9 7 7 7 7 7 7 11 10 9 8 6 7 6 5 6 5 5 5 6 5
4 6 4 6 3 3 6 3 5 3 5 8 8 8 9 10 10 11 12 12 12 12 12 12 12 13 14 12 9 9 9 8 7 7 8 10 11 11 9 8 7 6 6 6 6 6 6 5 6
11 6 4 7 2 2 6 10 9 10 6 9 10 8 9 12 17 14 11 10 12 12 12 13 9 14 11 9 8 6 7 8 8 8 9 10 10 12 10 8 8 7 6 6 5 8 5 6 6
3 2 3 1 2 4 6 11 11 12 7 10 10 11 14 16 18 17 14 13 9 9 11 14 11 13 8 6 8 9 10 8 7 9 11 12 11 12 12 9 9 8 9 10 9 7 8 6 4
5 7 6 3 3 3 7 21 13 6 11 13 15 17 18 18 15 17 14 9 9 11 11 11 13 12 11 10 8 7 6 9 8 7 10 12 12 12 11 12 10 11 9 10 10 10 5 5 6
6 11 4 4 0 4 5 25 13 18 9 8 9 12 17 18 17 17 12 10 8 9 10 10 12 12 10 12 4 1 1 1 3 8 8 9 11 11 13 13 11 10 10 10 11 11 12 9 5
13 7 6 4 2 9 5 21 12 5 12 8 12 10 13 16 12 16 13 9 8 7 6 6 7 9 11 11 9 11 10 10 9 7 5 7 10 12 12 13 12 11 8 11 10 9 11 10 10
6 8 9 6 4 4 14 8 5 6 11 20 12 11 11 10 11 13 8 5 5 6 5 4 3 3 5 5 9 7 7 6 3 3 5 6 7 11 11 12 12 11 10 11 12 10 13 11 11
6 5 2 3 6 10 13 10 26 10 12 10 3 5 6 8 8 8 7 7 8 7 10 11 11 9 7 1 4 6 7 8 5 5 4 5 4 5 9 11 11 11 11 12 11 13 13 13 13
4 6 3 5 7 10 4 11 25 3 7 7 9 6 3 7 8 8 10 10 11 12 12 12 13 13 11 11 9 7 5 5 5 5 5 6 6 4 8 10 11 10 12 13 12 12 13 14 13
11 13 7 5 4 5 4 11 14 6 3 5 6 9 8 8 7 9 10 10 12 13 14 14 14 14 13 12 12 10 11 6 5 5 4 5 6 6 8 9 11 12 13 12 12 11 12 13 13
6 13 15 7 2 1 5 9 12 3 10 4 3 7 9 9 10 11 11 12 13 13 15 14 15 15 15 13 10 10 10 10 8 8 8 7 8 7 7 7 10 12 13 13 13 11 13 13 14
4 3 5 6 6 5 5 5 8 12 12 3 8 11 11 10 12 12 13 13 12 12 12 14 15 14 13 13 12 10 11 11 11 10 11 11 10 11 11 11 9 10 11 12 13 12 12 14 12
6 8 3 2 3 5 12 7 5 10 12 5 12 13 10 11 11 11 11 12 12 12 14 14 15 15 15 14 12 12 11 11 10 10 11 12 12 12 13 12 12 11 10 11 12 13 13 15 14
7 12 12 8 5 4 1 2 1 2 9 16 14 12 9 10 9 9 10 11 13 13 13 15 15 15 13 11 11 12 12 12 13 13 13 13 13 13 13 13 12 11 12 12 12 12 11 13 14
Wind_Direction
318 318 78 39 58 65 35 261 311 168 59 325 56 128 171 69 150 212 318 171 134 137 144 154 139 149 157 152 148 147 163 151 138 138 149 136 127 120 116 112 102 111 107 97 91 107 70 40 42
314 328 42 77 81 67 277 261 176 240 142 141 85 75 49 12 172 55 106 189 147 141 140 144 157 158 157 153 152 155 161 155 159 156 129 141 128 126 129 126 122 117 109 109 99 94 56 20 61
330 31 72 83 104 148 185 216 145 107 172 239 94 39 145 205 185 184 238 144 133 135 140 147 150 160 159 159 161 161 154 151 170 146 139 152 137 134 140 139 135 119 112 110 115 100 62 59 22
10 8 38 74 47 241 223 190 157 125 319 90 126 59 301 232 185 185 143 136 141 136 144 156 159 162 164 168 171 184 160 163 169 164 148 171 144 141 145 141 139 129 127 116 117 114 90 60 35
31 51 50 76 320 291 326 190 136 136 237 338 135 205 268 17 47 129 141 140 159 152 155 162 167 169 167 173 178 177 173 176 173 187 157 144 146 145 152 160 142 138 126 128 122 113 101 78 48
35 86 54 78 319 307 337 164 128 125 309 251 55 129 262 331 139 164 146 149 158 167 158 174 180 179 175 179 183 181 187 182 181 189 180 159 156 153 158 165 162 152 129 142 129 120 113 105 68
101 73 171 181 288 341 8 197 149 159 172 276 142 135 263 279 191 157 151 141 149 167 159 165 183 196 192 188 186 190 187 180 174 184 208 149 147 157 160 163 167 159 154 158 147 135 123 127 75
99 89 101 275 187 263 331 240 360 148 199 93 169 255 315 234 154 134 136 150 160 175 178 178 174 183 205 208 204 196 200 189 182 161 167 194 187 175 164 169 186 179 175 174 174 179 172 161 309
115 65 152 239 165 239 337 134 336 234 120 353 279 221 269 126 124 122 135 178 184 192 200 189 190 183 186 208 219 211 206 193 189 172 176 182 178 358 169 201 202 202 178 184 195 210 222 225 307
81 108 213 229 158 241 302 138 291 85 29 237 278 230 6 141 154 168 187 202 207 207 205 202 198 199 187 190 198 222 216 207 200 192 198 191 181 179 184 223 237 181 192 174 195 229 244 256 236
135 177 212 257 188 304 332 317 197 138 269 234 219 224 173 173 186 198 214 204 208 210 211 207 204 197 193 198 183 185 215 206 205 202 201 212 205 183 182 216 279 263 214 175 206 256 262 251 236
303 230 199 314 357 18 301 327 313 184 232 184 197 244 176 199 206 210 217 215 199 195 208 206 207 199 200 195 193 194 190 209 215 200 195 181 197 211 204 197 214 215 204 205 214 224 247 257 257
209 253 223 328 313 276 304 244 251 249 266 258 282 214 225 220 230 229 241 240 230 225 211 206 196 203 204 203 206 199 204 201 206 214 199 186 193 199 200 210 204 214 207 213 219 223 223 237 249
287 317 282 308 289 272 252 258 156 272 275 274 248 266 256 231 236 259 244 236 228 232 224 207 205 204 198 209 214 216 207 205 198 207 221 201 197 199 198 202 211 215 204 208 214 219 229 232 225
311 319 330 238 246 255 158 295 227 254 5 307 302 302 286 265 258 238 245 239 228 228 228 211 209 204 202 206 212 218 215 202 199 206 203 218 211 207 200 203 206 216 205 215 215 234 233 241 236
185 66 278 266 212 261 138 261 280 60 92 285 294 299 299 286 247 251 247 241 235 232 214 217 212 204 207 210 208 214 215 208 211 206 201 206 216 211 209 206 212 209 204 212 219 226 236 237 231
196 245 234 305 19 299 189 258 260 295 324 293 278 286 301 299 294 266 253 241 242 231 229 221 207 207 208 210 207 207 209 211 213 212 210 204 207 211 214 215 215 193 208 214 216 224 220 226 235
230 227 232 221 274 239 268 262 273 285 298 286 290 288 267 272 274 273 257 233 236 228 221 226 211 218 205 204 202 205 212 215 216 215 215 209 208 201 209 222 216 192 206 214 211 226 210 229 232
132 140 229 302 307 300 249 267 262 269 287 283 287 283 275 266 265 264 256 247 225 227 221 219 206 218 196 192 201 217 217 215 218 219 219 210 213 203 205 218 214 201 209 217 211 216 225 235 189
218 246 251 218 206 250 294 280 270 246 256 262 273 278 275 276 276 267 264 257 230 233 226 228 219 214 200 205 218 215 198 217 219 220 220 215 213 208 211 214 217 211 219 219 214 206 216 229 176
210 227 186 241 222 259 318 281 276 269 261 264 265 255 264 266 278 281 272 246 244 229 225 223 218 216 209 215 201 179 26 334 193 222 228 221 214 209 210 218 218 213 214 223 219 211 212 233 199
234 162 177 228 154 263 157 282 272 263 268 247 259 265 274 283 278 272 272 261 259 266 275 241 216 207 208 197 199 198 213 220 226 233 220 216 204 215 213 220 222 222 212 227 224 213 216 220 233
233 156 182 180 209 297 242 272 337 34 279 276 263 249 279 295 293 287 285 307 26 9 335 280 263 273 274 212 208 194 222 240 250 232 230 226 215 214 218 219 219 226 228 232 226 219 214 217 227
143 107 140 160 225 238 238 210 274 249 245 259 255 265 325 337 344 19 29 47 42 13 36 49 63 40 27 3 233 212 210 219 221 214 222 231 230 225 226 228 224 225 227 232 230 229 225 222 228
150 136 225 204 201 245 152 187 245 264 267 260 249 296 44 37 16 22 29 34 40 36 32 47 51 45 35 43 32 18 355 321 284 268 253 254 248 227 224 225 227 227 228 232 233 231 228 228 227
191 208 222 226 211 233 141 225 252 251 337 252 228 159 102 69 36 36 25 35 40 41 39 39 38 39 32 40 37 27 15 16 355 344 337 304 283 268 243 234 229 231 234 234 234 237 235 233 234
178 213 222 281 95 284 221 280 295 304 269 261 57 140 97 63 40 35 36 37 33 37 37 36 36 34 27 25 25 31 25 17 11 359 7 358 340 327 297 259 243 236 237 238 238 235 239 236 234
184 197 177 201 226 253 237 269 253 339 316 325 107 78 62 55 46 36 33 29 31 32 38 38 35 33 26 25 22 20 18 13 10 3 13 4 347 341 337 323 287 257 250 248 244 246 245 244 241
185 217 189 350 248 267 265 245 327 298 296 101 94 84 79 68 53 41 34 29 24 27 32 32 29 26 20 16 12 17 15 10 11 7 5 355 346 349 341 331 318 313 286 262 255 256 253 246 243
206 217 208 229 207 217 225 251 328 320 83 97 83 89 88 77 71 54 49 36 28 21 24 24 22 18 13 8 7 12 11 6 4 4 358 352 346 346 333 325 323 323 317 311 292 271 256 256 256